When you browse on this site, cookies collect data to enhance your experience and personalize the content and advertising you see.
Visit our Privacy Policy to learn more. By continuing to use the site, you agree to this use of cookies and data.
  • In Hungary
  • List of Countries
  • For 7 days
  • Water Temperature
  • Weather Map
  • News
  • Weather Widgets
  • user-avatar
    Login

    Hourly Weather Lowech

    Today, 26 May, Tuesday

    Time Temperature Precipitation Wind Pressure Humidity
    00:00 +9°C° 0.1 mm 3 mps 740 mmHg 86%
    01:00 +9°C° 0.1 mm 2 mps 740 mmHg 87%
    02:00 +8°C° 0 mm 2 mps 740 mmHg 87%
    03:00 +8°C° 0 mm 2 mps 739 mmHg 87%
    04:00 +8°C° 0 mm 2 mps 739 mmHg 87%
    05:00 +8°C° 0 mm 2 mps 739 mmHg 88%
    06:00 +10°C° 0.1 mm 2 mps 739 mmHg 85%
    07:00 +12°C° 0.1 mm 2 mps 740 mmHg 83%
    08:00 +13°C° 0 mm 2 mps 740 mmHg 77%
    09:00 +14°C° 0.4 mm 2 mps 740 mmHg 77%
    10:00 +13°C° 0.4 mm 3 mps 739 mmHg 78%
    11:00 +14°C° 0.4 mm 3 mps 739 mmHg 78%
    12:00 +15°C° 0.7 mm 2 mps 739 mmHg 77%
    13:00 +16°C° 0.7 mm 2 mps 739 mmHg 75%
    14:00 +16°C° 0 mm 2 mps 739 mmHg 72%
    15:00 +16°C° 0.5 mm 2 mps 739 mmHg 74%
    16:00 +16°C° 0.5 mm 2 mps 739 mmHg 75%
    17:00 +16°C° 0.5 mm 2 mps 738 mmHg 76%
    18:00 +14°C° 0.4 mm 2 mps 738 mmHg 81%
    19:00 +13°C° 0.4 mm 1 mps 739 mmHg 85%
    20:00 +12°C° 0.4 mm 1 mps 739 mmHg 90%
    21:00 +11°C° 0.1 mm 1 mps 739 mmHg 90%
    22:00 +11°C° 0.1 mm 1 mps 739 mmHg 91%
    23:00 +9°C° 0.1 mm 2 mps 739 mmHg 92%

    Tomorrow, 27 May, Wednesday

    Time Temperature Precipitation Wind Pressure Humidity
    00:00 +9°C° 0 mm 2 mps 739 mmHg 92%
    01:00 +10°C° 0 mm 1 mps 739 mmHg 92%
    02:00 +9°C° 0 mm 1 mps 739 mmHg 93%
    03:00 +9°C° 0 mm 1 mps 739 mmHg 93%
    04:00 +9°C° 0 mm 1 mps 739 mmHg 93%
    05:00 +9°C° 0 mm 1 mps 739 mmHg 93%
    06:00 +11°C° 0 mm 1 mps 740 mmHg 90%
    07:00 +12°C° 0 mm 1 mps 740 mmHg 88%
    08:00 +14°C° 0 mm 1 mps 740 mmHg 85%
    09:00 +15°C° 0.9 mm 1 mps 740 mmHg 80%
    10:00 +16°C° 0.9 mm 1 mps 740 mmHg 76%
    11:00 +18°C° 0.9 mm 1 mps 740 mmHg 71%
    12:00 +18°C° 1.7 mm 2 mps 739 mmHg 71%
    13:00 +18°C° 1.7 mm 2 mps 739 mmHg 71%
    14:00 +18°C° 1.7 mm 3 mps 739 mmHg 71%
    15:00 +18°C° 1.7 mm 2 mps 738 mmHg 74%
    16:00 +17°C° 1.7 mm 2 mps 738 mmHg 77%
    17:00 +17°C° 1.7 mm 2 mps 738 mmHg 79%
    18:00 +16°C° 0.9 mm 2 mps 738 mmHg 82%
    19:00 +14°C° 0.9 mm 2 mps 738 mmHg 85%
    20:00 +13°C° 0.9 mm 2 mps 738 mmHg 88%
    21:00 +12°C° 0.7 mm 2 mps 739 mmHg 89%
    22:00 +12°C° 0.7 mm 2 mps 739 mmHg 90%
    23:00 +10°C° 0.7 mm 2 mps 739 mmHg 91%

    Day after tomorrow, 28 May, Thursday

    Time Temperature Precipitation Wind Pressure Humidity
    00:00 +10°C° 0.4 mm 2 mps 739 mmHg 92%
    01:00 +10°C° 0.4 mm 2 mps 739 mmHg 92%
    02:00 +10°C° 0.4 mm 2 mps 739 mmHg 92%
    03:00 +10°C° 0.2 mm 2 mps 738 mmHg 93%
    04:00 +11°C° 0.2 mm 1 mps 738 mmHg 93%
    05:00 +11°C° 0.2 mm 1 mps 738 mmHg 93%
    06:00 +12°C° 0.3 mm 2 mps 738 mmHg 92%
    07:00 +13°C° 0.3 mm 2 mps 738 mmHg 91%
    08:00 +12°C° 0.3 mm 3 mps 738 mmHg 90%
    09:00 +13°C° 0.4 mm 3 mps 738 mmHg 87%
    10:00 +14°C° 0.4 mm 3 mps 738 mmHg 84%
    11:00 +16°C° 0.4 mm 3 mps 738 mmHg 81%
    12:00 +17°C° 1 mm 3 mps 737 mmHg 79%
    13:00 +17°C° 1 mm 3 mps 737 mmHg 77%
    14:00 +18°C° 1 mm 3 mps 736 mmHg 75%
    15:00 +18°C° 0.9 mm 3 mps 736 mmHg 76%
    16:00 +17°C° 0.9 mm 3 mps 736 mmHg 77%
    17:00 +17°C° 0.9 mm 3 mps 735 mmHg 78%
    18:00 +16°C° 0.4 mm 3 mps 735 mmHg 81%
    19:00 +13°C° 0.4 mm 3 mps 735 mmHg 84%
    20:00 +13°C° 0.4 mm 2 mps 735 mmHg 87%
    21:00 +12°C° 0.1 mm 2 mps 736 mmHg 87%
    22:00 +12°C° 0.1 mm 2 mps 736 mmHg 88%
    23:00 +10°C° 0.1 mm 3 mps 736 mmHg 88%

    29 May, Friday

    Time Temperature Precipitation Wind Pressure Humidity
    00:00 +10°C° 0.1 mm 3 mps 736 mmHg 88%
    01:00 +10°C° 0.1 mm 3 mps 736 mmHg 88%
    02:00 +10°C° 0.1 mm 3 mps 736 mmHg 89%
    03:00 +10°C° 0 mm 3 mps 736 mmHg 89%
    04:00 +10°C° 0 mm 3 mps 736 mmHg 88%
    05:00 +10°C° 0 mm 3 mps 736 mmHg 88%
    06:00 +11°C° 0.1 mm 3 mps 736 mmHg 86%
    07:00 +13°C° 0.1 mm 4 mps 736 mmHg 83%
    08:00 +14°C° 0.1 mm 4 mps 736 mmHg 81%
    09:00 +15°C° 0.3 mm 4 mps 736 mmHg 80%
    10:00 +17°C° 0.3 mm 4 mps 736 mmHg 79%
    11:00 +17°C° 0.3 mm 4 mps 736 mmHg 78%
    12:00 +18°C° 1.1 mm 4 mps 735 mmHg 78%
    13:00 +18°C° 1.1 mm 4 mps 735 mmHg 79%
    14:00 +18°C° 1.1 mm 4 mps 735 mmHg 79%
    15:00 +18°C° 0.9 mm 4 mps 735 mmHg 80%
    16:00 +17°C° 0.9 mm 4 mps 735 mmHg 81%
    17:00 +17°C° 0.9 mm 3 mps 735 mmHg 83%
    18:00 +16°C° 0.4 mm 3 mps 735 mmHg 85%
    19:00 +14°C° 0.4 mm 3 mps 735 mmHg 87%
    20:00 +14°C° 0.4 mm 2 mps 735 mmHg 90%
    21:00 +13°C° 0 mm 2 mps 735 mmHg 90%
    22:00 +13°C° 0 mm 2 mps 735 mmHg 90%
    23:00 +12°C° 0 mm 2 mps 736 mmHg 90%

    30 May, Saturday

    Time Temperature Precipitation Wind Pressure Humidity
    00:00 +12°C° 0 mm 2 mps 735 mmHg 90%
    01:00 +10°C° 0 mm 2 mps 735 mmHg 90%
    02:00 +10°C° 0 mm 2 mps 735 mmHg 90%
    03:00 +11°C° 0 mm 1 mps 735 mmHg 90%
    04:00 +11°C° 0 mm 1 mps 735 mmHg 90%
    05:00 +10°C° 0 mm 1 mps 735 mmHg 89%
    06:00 +12°C° 0 mm 1 mps 736 mmHg 87%
    07:00 +13°C° 0 mm 1 mps 736 mmHg 84%
    08:00 +15°C° 0 mm 1 mps 736 mmHg 81%
    09:00 +15°C° 0.1 mm 2 mps 736 mmHg 80%
    10:00 +16°C° 0.1 mm 2 mps 736 mmHg 79%
    11:00 +17°C° 0.1 mm 2 mps 736 mmHg 78%
    12:00 +17°C° 0.5 mm 2 mps 736 mmHg 78%
    13:00 +17°C° 0.5 mm 2 mps 736 mmHg 78%
    14:00 +18°C° 0.5 mm 2 mps 735 mmHg 77%
    15:00 +18°C° 1.2 mm 2 mps 735 mmHg 78%
    16:00 +19°C° 1.2 mm 1 mps 735 mmHg 80%
    17:00 +19°C° 1.2 mm 1 mps 735 mmHg 81%
    18:00 +16°C° 1 mm 2 mps 735 mmHg 84%
    19:00 +15°C° 1 mm 2 mps 735 mmHg 87%
    20:00 +14°C° 1 mm 2 mps 734 mmHg 91%
    21:00 +14°C° 0.3 mm 2 mps 735 mmHg 91%
    22:00 +13°C° 0.3 mm 2 mps 735 mmHg 91%
    23:00 +13°C° 0.3 mm 2 mps 735 mmHg 91%

    31 May, Sunday

    Time Temperature Precipitation Wind Pressure Humidity
    00:00 +13°C° 0 mm 2 mps 735 mmHg 91%
    01:00 +12°C° 0 mm 2 mps 735 mmHg 91%
    02:00 +12°C° 0 mm 2 mps 735 mmHg 90%
    03:00 +12°C° 0 mm 2 mps 735 mmHg 91%
    04:00 +10°C° 0 mm 3 mps 735 mmHg 91%
    05:00 +10°C° 0 mm 3 mps 735 mmHg 91%
    06:00 +11°C° 0 mm 3 mps 735 mmHg 90%
    07:00 +12°C° 0 mm 3 mps 735 mmHg 89%
    08:00 +13°C° 0 mm 4 mps 735 mmHg 88%
    09:00 +14°C° 0 mm 4 mps 735 mmHg 82%
    10:00 +15°C° 0 mm 4 mps 735 mmHg 76%
    11:00 +17°C° 0 mm 4 mps 736 mmHg 70%
    12:00 +18°C° 0 mm 4 mps 735 mmHg 67%
    13:00 +19°C° 0 mm 4 mps 735 mmHg 65%
    14:00 +20°C° 0 mm 4 mps 735 mmHg 62%
    15:00 +20°C° 0 mm 4 mps 735 mmHg 63%
    16:00 +19°C° 0 mm 4 mps 735 mmHg 64%
    17:00 +19°C° 0 mm 3 mps 734 mmHg 65%
    18:00 +18°C° 0 mm 3 mps 734 mmHg 71%
    19:00 +16°C° 0 mm 2 mps 734 mmHg 77%
    20:00 +14°C° 0 mm 2 mps 734 mmHg 83%
    21:00 +14°C° 0 mm 2 mps 735 mmHg 84%
    22:00 +13°C° 0 mm 2 mps 735 mmHg 85%
    23:00 +12°C° 0 mm 2 mps 735 mmHg 85%
    Show more